Zurück zum Katalog

STARLINK-32126

AktivKommunikationVLEO
NORAD 60295·PAYLOAD·🇺🇸 United States

Gestartet Jul 28, 2024 von Cape Canaveral Space Force Station

Loading…

Nächste Überflüge (nächste 24 Stunden)

TLE

AktuellSource: CelesTrak SupGP

Epoche: Sep 14, 2026, 21:09 UTC

1 60295C 24132T   26257.88173611  .00056022  00000+0  18017-2 0  2571
2 60295  53.1562 252.4896 0001187  99.6443 234.8474 15.31671232    18

Verfolge STARLINK-32126 in Echtzeit mit AllMySat

Download on the App Store